[[{"header":{"parameterUnit":"m.s-1","parameterCategory":1,"la1":30.2991,"la2":30.254,"lo1":-89.0895,"lo2":-89.0444,"dy":0.0017,"dx":0.0017,"nx":28,"ny":28,"refTime":"2024-12-13T09:00:00:Z","depth":0,"parameterNumber":2,"parameterNumberName":"U-component_of_WINDS"},"data":[0,0,0,0,0,0,0,0,0,0,0,0,0,0,0,0,0,0,0,0,0,0,0,0,0,0,0,0,0,0,0,0,0,0,0,0,0,0,0,0,0,0,0,0,0,0,0,0,0,0,0,0,0,0,0,0,0,0,-3.7957,-3.7957,0,-3.7984,-3.7984,-3.7984,-3.7927,-3.7925,-3.7923,-3.7921,-3.7949,-3.7952,-3.7954,0,0,0,0,0,0,0,0,0,0,0,0,0,-3.7858,-3.786,-3.7957,-3.7957,-3.7958,-3.7984,-3.7984,-3.7984,-3.7927,-3.7925,-3.7923,-3.7921,-3.7949,-3.7952,-3.7955,0,0,0,0,0,0,0,0,0,0,0,0,0,-3.7894,-3.7861,-3.7957,-3.7932,-3.793,-3.7984,-3.7984,-3.7985,-3.7928,-3.7925,-3.7922,-3.792,-3.7948,-3.7951,-3.7955,-3.8034,0,0,-3.7966,-3.7968,0,0,0,0,0,0,0,0,-3.7892,-3.7898,-3.7935,-3.7934,-3.7932,-3.7949,-3.7959,-3.8001,-3.7928,-3.7929,-3.7921,-3.7918,-3.7952,-3.7955,-3.7966,-3.8035,-3.8036,-3.7967,-3.7969,-3.7971,-3.7972,0,0,0,0,0,0,0,-3.789,-3.7897,-3.7967,-3.7936,-3.7934,-3.792,-3.7922,-3.7967,-3.7955,-3.7928,-3.7924,-3.7928,-3.795,-3.7963,-3.7966,-3.8037,-3.7967,-3.797,-3.7972,-3.7974,-3.8174,-3.8177,0,0,0,0,0,0,-3.789,-3.7895,-3.7967,-3.7968,-3.7905,-3.7924,-3.7927,-3.7946,-3.7955,-3.7953,-3.7931,-3.7926,-3.7958,-3.7962,-3.7967,-3.8061,-3.797,-3.7974,-3.7976,-3.8171,-3.8175,-3.8178,0,0,0,0,0,0,-3.7889,-3.7897,-3.7966,-3.7931,-3.7938,-3.7929,-3.7952,-3.7948,-3.7961,-3.7956,-3.7954,-3.7945,-3.7956,-3.7962,-3.8018,-3.8061,-3.7976,-3.7979,-3.8167,-3.8172,-3.8176,-3.8249,0,0,0,0,0,0,-3.7886,-3.7897,-3.7926,-3.7932,-3.794,-3.8016,-3.7954,-3.7951,-3.7967,-3.7961,-3.797,-3.7969,-3.7954,-3.8013,-3.8022,-3.8065,-3.7982,-3.8163,-3.8169,-3.8175,-3.8243,-3.8256,-3.8267,0,0,0,0,0,-3.7883,-3.7945,-3.7928,-3.7937,-3.7977,-3.8018,-3.8023,-3.8005,-3.7971,-3.8001,-3.7998,-3.7968,-3.8055,-3.8019,-3.8029,-3.8073,-3.816,-3.8168,-3.8174,-3.8237,-3.8253,-3.8266,0,0,0,0,0,0,-3.7945,-3.7945,-3.7926,-3.7992,-3.8006,-3.8008,-3.8045,-3.8022,-3.8045,-3.8038,-3.8015,-3.8017,-3.8078,-3.8081,-3.8041,-3.8151,-3.8102,-3.8111,-3.8147,-3.8162,-3.8173,-3.8171,-3.7985,0,0,0,0,0,-3.7966,-3.7999,-3.7998,-3.8057,-3.8065,-3.8054,-3.8072,-3.8057,-3.8069,-3.8075,-3.8076,-3.809,-3.8121,-3.8141,-3.8169,-3.8243,-3.8245,-3.8279,-3.8291,-3.8301,-3.8309,-3.835,-3.8366,-3.8201,-3.8201,-3.8201,0,0,-3.801,-3.8015,-3.8037,-3.807,-3.8078,-3.8114,-3.8059,-3.8099,-3.8126,-3.8081,-3.8134,-3.8136,-3.815,-3.8217,-3.8246,-3.8221,-3.8355,-3.831,-3.8317,-3.832,-3.8359,-3.8375,-3.8388,-3.8206,-3.8205,-3.8204,0,0,-3.811,-3.8116,-3.8167,-3.8177,-3.8191,-3.8184,-3.8196,-3.8203,-3.8203,-3.8256,-3.8224,-3.8256,-3.8308,-3.832,-3.8333,-3.844,-3.8414,-3.845,-3.8512,-3.8553,-3.8566,-3.8577,-3.8616,-3.8631,-3.8458,-3.8458,-3.8459,0,-3.8163,-3.8216,-3.8195,-3.8238,-3.8254,-3.8216,-3.8267,-3.8278,-3.8301,-3.8313,-3.8285,-3.8352,-3.8359,-3.8428,-3.8454,-3.8466,-3.848,-3.8449,-3.8565,-3.8577,-3.8587,-3.8624,-3.8639,-3.8463,-3.8462,-3.8462,-3.8461,0,-3.8281,-3.8318,-3.8357,-3.8381,-3.8401,-3.8448,-3.8436,-3.8459,-3.8443,-3.8439,-3.8495,-3.8503,-3.8532,-3.8547,-3.8532,-3.8615,-3.86,-3.8569,-3.8519,-3.8607,-3.8642,-3.8656,-3.8469,-3.8467,-3.8466,-3.8465,0,0,-3.8419,-3.8432,-3.8447,-3.8458,-3.8472,-3.85,-3.8546,-3.8575,-3.8596,-3.8614,-3.8653,-3.8699,-3.8672,-3.8687,-3.8673,-3.8708,-3.8794,-3.8673,-3.8673,-3.8696,-3.8889,-3.8912,-3.8928,-3.8777,-3.878,-3.8782,-3.8888,0,-3.8518,-3.8597,-3.8581,-3.8659,-3.8694,-3.8659,-3.87,-3.8713,-3.8712,-3.8742,-3.874,-3.8774,-3.8734,-3.8744,-3.8777,-3.8777,-3.8833,-3.8769,-3.8814,-3.8816,-3.8812,-3.8946,-3.897,-3.907,-3.8901,-3.8903,-3.8905,0,-3.8643,-3.8666,-3.8748,-3.8758,-3.8772,-3.8809,-3.8835,-3.8864,-3.888,-3.8876,-3.8894,-3.8874,-3.8921,-3.8871,-3.8937,-3.8894,-3.8912,-3.8915,-3.8918,-3.8921,-3.8866,-3.8954,-3.9101,-3.9116,-3.8926,-3.8924,-3.8923,0,-3.8737,-3.8788,-3.8844,-3.8854,-3.8867,-3.8894,-3.8901,-3.8914,-3.8933,-3.8957,-3.8969,-3.8998,-3.9014,-3.9037,-3.9026,-3.899,-3.9094,-3.9043,-3.9093,-3.9094,-3.9116,-3.9115,-3.9269,-3.9128,-3.9127,-3.9127,-3.9127,0,-3.8849,-3.89,-3.8886,-3.8921,-3.8978,-3.896,-3.9018,-3.902,-3.9032,-3.9068,-3.904,-3.9073,-3.9056,-3.9089,-3.908,-3.9137,-3.9144,-3.9143,-3.914,-3.9146,-3.9146,-3.9157,-3.915,-3.9131,-3.913,-3.9129,-3.9129,0,-3.8962,-3.8955,-3.9014,-3.9022,-3.9026,-3.9067,-3.9075,-3.9108,-3.9105,-3.915,-3.9159,-3.9155,-3.9193,-3.9184,-3.9224,-3.9219,-3.929,-3.9278,-3.9285,-3.9283,-3.9334,-3.933,-3.95,-3.9522,-3.9366,-3.9368,-3.9369,0,-3.9034,-3.9073,-3.9086,-3.9108,-3.9117,-3.9152,-3.9173,-3.9158,-3.918,-3.9202,-3.9232,-3.9267,-3.9295,-3.9356,-3.9357,-3.9389,-3.9378,-3.9436,-3.9383,-3.9388,-3.938,-3.9378,-3.9383,-3.9446,-3.9448,-3.9449,-3.9451,0,-3.9163,-3.9159,-3.9188,-3.9218,-3.9243,-3.9265,-3.9285,-3.9305,-3.9291,-3.9318,-3.9356,-3.9378,-3.942,-3.9456,-3.9486,-3.9493,-3.9471,-3.9468,-3.9481,-3.9487,-3.949,-3.949,-3.9315,-3.9464,-3.9462,-3.9461,-3.9461,-3.946,-3.9259,-3.9292,-3.9308,-3.9343,-3.9356,-3.9376,-3.9408,-3.941,-3.9442,-3.9475,-3.9465,-3.9509,-3.9526,-3.9563,-3.9575,-3.961,-3.9588,-3.9608,-3.9613,-3.9618,-3.9625,-3.9485,-3.9615,-3.9615,-3.9614,-3.9614,-3.9614,0,-3.9387,-3.9396,-3.9428,-3.9458,-3.9486,-3.9462,-3.9484,-3.9509,-3.9548,-3.9566,-3.9594,-3.9639,-3.9674,-3.9679,-3.9713,-3.974,-3.9731,-3.9749,-3.9747,-3.975,-3.9641,-3.9627,-3.9757,-3.9757,-3.9757,-3.9756,-3.9756,-3.9756,-3.9457,-3.9514,-3.9511,-3.9575,-3.9583,-3.9627,-3.9641,-3.966,-3.9674,-3.9726,-3.9755,-3.9758,-3.9772,-3.9806,-3.9838,-3.9839,-3.9853,-3.9876,-3.9873,-3.9771,-3.9757,-3.9744,-3.973,-3.9879,-3.9879,-3.9978,-3.9979,-3.998]},{"header":{"parameterUnit":"m.s-1","parameterCategory":1,"la1":30.2991,"la2":30.254,"lo1":-89.0895,"lo2":-89.0444,"dy":0.0017,"dx":0.0017,"nx":28,"ny":28,"refTime":"2024-12-13T09:00:00:Z","depth":0,"parameterNumber":3,"parameterNumberName":"V-component_of_WINDS"},"data":[0,0,0,0,0,0,0,0,0,0,0,0,0,0,0,0,0,0,0,0,0,0,0,0,0,0,0,0,0,0,0,0,0,0,0,0,0,0,0,0,0,0,0,0,0,0,0,0,0,0,0,0,0,0,0,0,0,0,1.5918,1.5918,0,1.5904,1.5904,1.5904,1.5886,1.5886,1.5885,1.5885,1.5868,1.5868,1.5867,0,0,0,0,0,0,0,0,0,0,0,0,0,1.593,1.593,1.5918,1.5918,1.5918,1.5904,1.5904,1.5903,1.5886,1.5886,1.5885,1.5885,1.5868,1.5868,1.5867,0,0,0,0,0,0,0,0,0,0,0,0,0,1.5921,1.593,1.5918,1.5907,1.5906,1.5904,1.5904,1.5903,1.5886,1.5886,1.5885,1.5885,1.5868,1.5868,1.5867,1.5874,0,0,1.5866,1.5866,0,0,0,0,0,0,0,0,1.5922,1.5921,1.5909,1.5908,1.5907,1.5896,1.5902,1.5893,1.5886,1.5894,1.5885,1.5885,1.5877,1.5876,1.5874,1.5873,1.5872,1.5866,1.5866,1.5866,1.5866,0,0,0,0,0,0,0,1.5923,1.5921,1.5912,1.5909,1.5908,1.5903,1.5902,1.59,1.5888,1.5893,1.5892,1.589,1.5877,1.5875,1.5874,1.5872,1.5866,1.5866,1.5866,1.5866,1.5879,1.588,0,0,0,0,0,0,1.5925,1.5922,1.5913,1.5912,1.5914,1.5904,1.5902,1.59,1.5888,1.5886,1.5891,1.589,1.5876,1.5874,1.5873,1.5883,1.5866,1.5866,1.5866,1.5879,1.5879,1.588,0,0,0,0,0,0,1.5925,1.5924,1.5913,1.5917,1.5915,1.5904,1.5902,1.59,1.5898,1.5886,1.5884,1.5891,1.5875,1.5874,1.5875,1.5882,1.5866,1.5865,1.5878,1.5879,1.588,1.59,0,0,0,0,0,0,1.5926,1.5924,1.5926,1.5917,1.5915,1.5915,1.5902,1.59,1.5898,1.5896,1.5886,1.5884,1.5875,1.5875,1.5875,1.5881,1.5865,1.5877,1.5878,1.5879,1.5899,1.5901,1.5904,0,0,0,0,0,1.5926,1.5931,1.5926,1.5925,1.5917,1.5915,1.5914,1.5905,1.5898,1.5901,1.5894,1.5884,1.5881,1.5876,1.5875,1.5881,1.5877,1.5878,1.5879,1.5897,1.5901,1.5904,0,0,0,0,0,0,1.5939,1.5929,1.5924,1.5926,1.5922,1.5912,1.5914,1.5908,1.5904,1.5903,1.589,1.5888,1.5892,1.5886,1.588,1.5889,1.5878,1.5879,1.5892,1.5895,1.5898,1.5899,1.5865,0,0,0,0,0,1.5943,1.5942,1.5934,1.5936,1.5935,1.5925,1.5924,1.5918,1.5912,1.591,1.5903,1.5898,1.5897,1.5895,1.5893,1.5898,1.5897,1.5902,1.5905,1.5907,1.5908,1.5914,1.5917,1.5884,1.5884,1.5884,0,0,1.5949,1.5944,1.5944,1.5939,1.5935,1.5936,1.5924,1.5924,1.5925,1.591,1.5912,1.5907,1.59,1.5905,1.5906,1.59,1.5917,1.5908,1.591,1.591,1.5916,1.5919,1.5922,1.5885,1.5884,1.5884,0,0,1.5961,1.5956,1.596,1.5957,1.5953,1.5947,1.5948,1.5941,1.5938,1.594,1.593,1.593,1.5927,1.5924,1.5922,1.5939,1.5931,1.5938,1.5952,1.5958,1.596,1.5963,1.5971,1.5974,1.5939,1.594,1.594,0,1.5969,1.597,1.5962,1.5965,1.5964,1.5953,1.5958,1.5955,1.5949,1.5949,1.5943,1.5942,1.5936,1.5942,1.5947,1.5944,1.5947,1.5939,1.5961,1.5963,1.5965,1.5973,1.5976,1.5941,1.5941,1.594,1.594,0,1.5982,1.5983,1.5987,1.5984,1.5984,1.5987,1.5981,1.5981,1.5976,1.5972,1.5976,1.597,1.5968,1.5969,1.5962,1.5974,1.5971,1.5963,1.5952,1.597,1.5977,1.598,1.5942,1.5942,1.5942,1.5941,0,0,1.5999,1.5996,1.5997,1.5998,1.5994,1.5995,1.5999,1.5999,1.6002,1.5999,1.6003,1.6003,1.5997,1.5995,1.5989,1.5994,1.6012,1.5986,1.5985,1.5992,1.6028,1.6035,1.6039,1.6006,1.6007,1.6007,1.603,0,1.6012,1.6019,1.6014,1.6023,1.6026,1.6018,1.6022,1.6021,1.6018,1.602,1.6016,1.6017,1.6008,1.6008,1.6012,1.6008,1.6019,1.6006,1.6011,1.6012,1.6014,1.6042,1.6049,1.607,1.6032,1.6033,1.6033,0,1.6026,1.6028,1.6038,1.6038,1.6039,1.6042,1.6044,1.6046,1.6046,1.6044,1.6044,1.6038,1.6043,1.6033,1.6041,1.6033,1.6035,1.6034,1.6035,1.6035,1.6024,1.6045,1.6076,1.608,1.6037,1.6037,1.6036,0,1.6041,1.6045,1.6052,1.6053,1.6052,1.6056,1.6056,1.6055,1.6057,1.6059,1.606,1.6062,1.6063,1.6065,1.606,1.6052,1.607,1.6058,1.607,1.607,1.6074,1.6074,1.6107,1.6073,1.6073,1.6073,1.6073,0,1.6056,1.6062,1.606,1.6064,1.6073,1.6068,1.6076,1.6075,1.6076,1.6081,1.6073,1.6078,1.6071,1.6076,1.6072,1.6081,1.6081,1.608,1.6079,1.6082,1.6082,1.6083,1.6082,1.6074,1.6073,1.6073,1.6073,0,1.6072,1.607,1.6079,1.6079,1.608,1.6086,1.6087,1.6092,1.609,1.6097,1.6099,1.6096,1.6101,1.6097,1.6101,1.6099,1.6113,1.6109,1.6113,1.6113,1.6125,1.6125,1.6161,1.6167,1.6128,1.6128,1.6129,0,1.6082,1.6088,1.6091,1.6095,1.6096,1.6101,1.6105,1.6101,1.6105,1.6108,1.6113,1.6119,1.6123,1.6133,1.6131,1.6136,1.6133,1.6146,1.6133,1.6137,1.6136,1.6136,1.6138,1.6148,1.6148,1.6149,1.6149,0,1.6101,1.6101,1.6106,1.6113,1.6118,1.6122,1.6125,1.6129,1.6126,1.6131,1.6138,1.6142,1.615,1.6156,1.6161,1.6161,1.6156,1.6154,1.6157,1.6159,1.6163,1.6164,1.6122,1.6152,1.6152,1.6152,1.6152,1.6151,1.6115,1.6122,1.6126,1.6134,1.6137,1.6142,1.6148,1.6149,1.6156,1.6163,1.616,1.617,1.6173,1.618,1.6181,1.6189,1.6184,1.6187,1.6189,1.619,1.6193,1.6162,1.6189,1.6189,1.6189,1.6189,1.6189,0,1.6135,1.6139,1.6146,1.6154,1.6161,1.6157,1.6162,1.6168,1.6177,1.6181,1.6188,1.6198,1.6206,1.6206,1.6214,1.622,1.6218,1.6222,1.6222,1.6223,1.6196,1.6194,1.6224,1.6224,1.6224,1.6224,1.6224,1.6224,1.6147,1.6159,1.616,1.6175,1.6178,1.6189,1.6193,1.6198,1.6203,1.6215,1.6223,1.6224,1.6228,1.6237,1.6244,1.6244,1.6248,1.6254,1.6253,1.6228,1.6224,1.6221,1.6219,1.6254,1.6254,1.628,1.628,1.6281]}]]